Weather History for KGAG - May, 2013

Change the Weather History Date:

Tuesday, May 21, 2013

  Actual Average Record
Temperature  
Mean Temperature 64 °F -  
Max Temperature 75 °F 78 °F 102 °F (1948)
Min Temperature 54 °F 55 °F 42 °F (1967)
Growing Degree Days 14 (Base 50)    
Moisture  
Dew Point 43 °F    
Average Humidity 48    
Maximum Humidity 67    
Minimum Humidity 27    
Precipitation  
Precipitation 0.00 in - - ()
Sea Level Pressure  
Sea Level Pressure 29.82 in    
Wind  
Wind Speed 10 mph (NW)    
Max Wind Speed 25 mph    
Max Gust Speed 34 mph    
Visibility 10 miles    
Events      
Averages and records for this station are not official NWS values.
T = Trace of Precipitation, MM = Missing Value Source: NWS Daily Summary

Daily Weather History Graph

Daily Weather History Graph

Search for Another Location

Airport or City:

Trip Planner

Search our weather history database for the weather conditions in past years. The results will help you decide how hot, cold, wet, or windy it might be!

Date:

Astronomy

May. 21, 2013 Rise Set
Actual Time 6:28 AM CDT 8:43 PM CDT
Civil Twilight 5:59 AM CDT 9:12 PM CDT
Nautical Twilight 5:23 AM CDT 9:48 PM CDT
Astronomical Twilight 4:44 AM CDT 10:27 PM CDT
Moon 5:04 PM CDT (5/21) 3:50 AM CDT (5/21)
Length of Visible Light 15h 13m
Length of Day
14h 15m
Waxing Gibbous, 84% of the Moon is Illuminated
May 21
Waxing Gibbous
May 24
Full
May 31
Last Quarter
Jun 8
New
Jun 16
First Quarter

Hourly Weather History & Observations

Time (CDT) Temp. Dew Point Humidity Pressure Visibility Wind Dir Wind Speed Gust Speed Precip Events Conditions
12:53 AM 55.9 °F 45.0 °F 67% 29.85 in 10.0 mi NNW 5.8 mph - N/A   Clear
1:53 AM 59.0 °F 44.1 °F 58% 29.84 in 10.0 mi NNE 9.2 mph - N/A   Clear
2:53 AM 59.0 °F 42.1 °F 53% 29.83 in 10.0 mi North 9.2 mph - N/A   Clear
3:53 AM 57.9 °F 42.1 °F 56% 29.83 in 10.0 mi North 12.7 mph - N/A   Clear
4:53 AM 57.0 °F 42.1 °F 57% 29.83 in 10.0 mi North 8.1 mph - N/A   Clear
5:53 AM 54.0 °F 42.1 °F 64% 29.86 in 10.0 mi Calm Calm - N/A   Clear
6:53 AM 54.0 °F 42.1 °F 64% 29.85 in 10.0 mi North 8.1 mph - N/A   Clear
7:53 AM 59.0 °F 42.1 °F 53% 29.86 in 10.0 mi North 13.8 mph 20.7 mph N/A   Clear
8:53 AM 61.0 °F 41.0 °F 48% 29.85 in 10.0 mi NNW 21.9 mph 31.1 mph N/A   Clear
9:53 AM 64.9 °F 42.1 °F 43% 29.82 in 10.0 mi North 25.3 mph 34.5 mph N/A   Clear
10:53 AM 68.0 °F 42.1 °F 39% 29.83 in 10.0 mi North 23.0 mph 29.9 mph N/A   Clear
11:53 AM 64.0 °F 42.1 °F 45% 29.96 in 10.0 mi SW 3.5 mph - N/A   Overcast
12:53 PM 64.9 °F 42.1 °F 43% 29.85 in 10.0 mi NW 11.5 mph - N/A   Overcast
1:53 PM 70.0 °F 41.0 °F 35% 29.84 in 10.0 mi NNE 9.2 mph 17.3 mph N/A   Clear
2:53 PM 73.0 °F 42.1 °F 33% 29.82 in 10.0 mi NW 12.7 mph - N/A   Clear
3:53 PM 73.0 °F 41.0 °F 31% 29.80 in 10.0 mi NNW 5.8 mph - N/A   Partly Cloudy
4:53 PM 73.0 °F 41.0 °F 31% 29.75 in 10.0 mi West 9.2 mph - N/A   Clear
5:53 PM 75.0 °F 39.0 °F 27% 29.73 in 10.0 mi NNW 9.2 mph - N/A   Scattered Clouds
6:53 PM 73.9 °F 44.1 °F 34% 29.75 in 10.0 mi WSW 11.5 mph - N/A   Mostly Cloudy
7:53 PM 72.0 °F 44.1 °F 37% 29.75 in 10.0 mi SW 11.5 mph - N/A   Overcast
8:53 PM 64.9 °F 44.1 °F 47% 29.77 in 10.0 mi SW 8.1 mph - N/A   Clear
9:53 PM 62.1 °F 45.0 °F 53% 29.78 in 10.0 mi SSW 10.4 mph - N/A   Clear
10:53 PM 57.9 °F 45.0 °F 62% 29.81 in 10.0 mi SW 9.2 mph - N/A   Clear
11:53 PM 57.0 °F 46.0 °F 67% 29.82 in 10.0 mi West 8.1 mph - N/A   Clear